Weather History for Pine Ridge, SD

Change the Weather History Date:

Thursday, April 3, 2014

  Actual Average Record
Temperature  
Mean Temperature 30 °F 42 °F  
Max Temperature 39 °F 56 °F 75 °F (2005)
Min Temperature 21 °F 28 °F 5 °F (2002)
Degree Days  
Heating Degree Days 35 23  
Month to date heating degree days 117 69  
Since 1 July heating degree days 6532 6307  
Cooling Degree Days 0 0  
Month to date cooling degree days 0 0  
Year to date cooling degree days 0 0  
Moisture  
Dew Point 25 °F    
Average Humidity 78    
Maximum Humidity 100    
Minimum Humidity 56    
Precipitation  
Precipitation 0.00 in 0.04 in 0.17 in (1999)
Month to date precipitation 0.08 0.12  
Year to date precipitation 0.69 1.78  
Sea Level Pressure  
Sea Level Pressure 29.98 in    
Wind  
Wind Speed 10 mph (NW)    
Max Wind Speed 29 mph    
Max Gust Speed 37 mph    
Visibility 7 miles    
Events Fog    
T = Trace of Precipitation, MM = Missing Value Source: NWS Daily Summary

Daily Weather History Graph

Daily Weather History Graph

Search for Another Location

Airport:

Trip Planner

Search our weather history database for the weather conditions in past years. The results will help you decide how hot, cold, wet, or windy it might be!

Date:

Astronomy

Apr. 03, 2014 Rise Set
Actual Time 6:28 AM MDT 7:18 PM MDT
Civil Twilight 5:59 AM MDT 7:47 PM MDT
Nautical Twilight 5:25 AM MDT 8:21 PM MDT
Astronomical Twilight 4:50 AM MDT 8:57 PM MDT
Moon 8:54 AM MDT (4/3) 11:45 PM MDT (4/3)
Length of Visible Light 13h 47m
Length of Day
12h 50m
Waxing Crescent, 18% of the Moon is Illuminated
Apr 3
Waxing Crescent
Apr 7
First Quarter
Apr 15
Full
Apr 22
Last Quarter
Apr 29
New

Hourly Weather History & Observations

Time (MDT) Temp. Windchill Dew Point Humidity Pressure Visibility Wind Dir Wind Speed Gust Speed Precip Events Conditions
1:52 AM 27.0 °F 23.0 °F 24.1 °F 89% 29.94 in 10.0 mi SSE 3.5 mph - N/A   Clear
2:37 AM 27.0 °F 23.0 °F 25.0 °F 92% 29.85 in 9.0 mi NNW 3.5 mph - N/A   Mostly Cloudy
2:52 AM 27.0 °F 23.0 °F 26.1 °F 96% 29.93 in 8.0 mi WNW 3.5 mph - N/A   Overcast
3:04 AM 28.0 °F 22.8 °F 26.1 °F 92% 29.85 in 8.0 mi WNW 4.6 mph - N/A   Overcast
3:13 AM 28.0 °F 24.2 °F 26.1 °F 92% 29.85 in 8.0 mi WNW 3.5 mph - N/A   Overcast
3:50 AM 28.4 °F - 26.6 °F 93% 29.85 in 8.0 mi Calm Calm - N/A   Overcast
3:51 AM 28.0 °F - 27.0 °F 96% 29.92 in 8.0 mi Calm Calm - N/A   Overcast
4:52 AM 25.0 °F 20.7 °F 24.1 °F 96% 29.94 in 6.0 mi NW 3.5 mph - N/A   Mostly Cloudy
5:26 AM 25.0 °F 18.1 °F 24.1 °F 96% 29.86 in 1.8 mi West 5.8 mph - N/A   Overcast
5:41 AM 25.0 °F 16.3 °F 23.0 °F 92% 29.87 in 0.5 mi West 8.1 mph - N/A Fog Light Freezing Fog
5:52 AM 25.0 °F 18.1 °F 24.1 °F 96% 29.96 in 0.5 mi West 5.8 mph - N/A Fog Light Freezing Fog
6:04 AM 25.0 °F 19.3 °F 24.1 °F 96% 29.88 in 2.0 mi WNW 4.6 mph - N/A   Overcast
6:15 AM 24.1 °F 18.2 °F 23.0 °F 96% 29.88 in 0.8 mi NW 4.6 mph - N/A   Mist
6:32 AM 24.1 °F 17.0 °F 23.0 °F 96% 29.89 in 0.2 mi WNW 5.8 mph - N/A Fog Light Freezing Fog
6:52 AM 24.1 °F 18.2 °F 23.0 °F 96% 29.98 in 0.2 mi WNW 4.6 mph - N/A Fog Light Freezing Fog
7:52 AM 24.1 °F 19.7 °F 23.0 °F 96% 30.01 in 0.2 mi WNW 3.5 mph - N/A Fog Light Freezing Fog
8:52 AM 26.1 °F 20.5 °F 25.0 °F 96% 30.01 in 0.5 mi West 4.6 mph - N/A Fog Light Freezing Fog
9:05 AM 26.1 °F - 26.1 °F 100% 29.92 in 1.0 mi Calm Calm - N/A   Overcast
9:15 AM 27.0 °F - 26.1 °F 96% 29.92 in 3.0 mi Calm Calm - N/A   Mostly Cloudy
9:32 AM 28.0 °F 24.2 °F 26.1 °F 92% 29.93 in 9.0 mi SW 3.5 mph - N/A   Partly Cloudy
9:52 AM 28.9 °F 23.9 °F 27.0 °F 92% 30.02 in 10.0 mi SW 4.6 mph - N/A   Partly Cloudy
10:52 AM 30.0 °F 22.4 °F 27.0 °F 88% 30.03 in 10.0 mi NW 8.1 mph - N/A   Clear
11:52 AM 32.0 °F 25.6 °F 27.0 °F 82% 30.04 in 10.0 mi WNW 6.9 mph - N/A   Clear
12:52 PM 36.0 °F 27.5 °F 26.1 °F 67% 30.03 in 10.0 mi North 12.7 mph - N/A   Clear
1:52 PM 35.1 °F 25.2 °F 26.1 °F 70% 30.04 in 10.0 mi NNW 16.1 mph 21.9 mph N/A   Partly Cloudy
2:52 PM 36.0 °F 26.0 °F 26.1 °F 67% 30.03 in 10.0 mi NNW 17.3 mph 23.0 mph N/A   Clear
3:52 PM 37.9 °F 29.2 °F 28.0 °F 68% 30.02 in 10.0 mi North 15.0 mph - N/A   Partly Cloudy
4:52 PM 37.9 °F 29.2 °F 26.1 °F 62% 30.04 in 10.0 mi North 15.0 mph 23.0 mph N/A   Clear
5:52 PM 37.9 °F 29.6 °F 25.0 °F 60% 30.06 in 10.0 mi North 13.8 mph - N/A   Clear
6:52 PM 36.0 °F 25.3 °F 21.9 °F 57% 30.08 in 10.0 mi North 19.6 mph 32.2 mph N/A   Clear
7:52 PM 32.0 °F 18.6 °F 24.1 °F 73% 30.10 in 10.0 mi NNE 25.3 mph 33.4 mph N/A   Clear
9:52 PM 28.9 °F 16.9 °F 24.1 °F 82% 30.15 in 10.0 mi North 17.3 mph 27.6 mph N/A   Clear
10:52 PM 27.0 °F 13.2 °F 23.0 °F 85% 30.15 in 10.0 mi NNE 20.7 mph - N/A   Clear
11:52 PM 26.1 °F - 21.9 °F 84% 30.18 in 10.0 mi Calm Calm - N/A   Partly Cloudy